Location: Arrien
(43.3167°N, 0.1500°W)
Time: 23:31:18
(UTC+00:00)

Uosat 12 SS-18 rocket - Pass Details

Date: 15 October 2021
Orbit: 579 x 1406 km, 64.6° (Epoch: 04 December)

Event Time Altitude Azimuth Distance (km) Brightness Sun altitude
Rises 17:42:32 0° 207° (SSW) 2,926 8.0 -5.3°
Reaches altitude 10° 17:44:38 10° 206° (SSW) 2,091 7.2 -5.7°
Maximum altitude 17:49:19 75° 121° (ESE) 789 4.5 -6.6°
Drops below altitude 10° 17:55:08 10° 37° (NE) 2,568 6.8 -7.6°
Sets 17:57:57 0° 36° (NE) 3,653 7.6 -8.1°
